Home   Weather   L'viv   Past weeks

Flag for Ukraine Past Weather in L'viv, Ukraine — Yesterday and Last 2 Weeks

Now
52 °F

Clear.


Feels Like: 51 °F
Forecast: 53 / 73 °F
Wind: 3 mph from Southeast

Location: L'Viv Airport

Current Time: Oct 1, 2016 at 2:51:34 AM

Latest Report: Oct 1, 2016 at 2:30 AM


Visibility: 10 mi

Pressure: 30.04 "Hg

Humidity: 88%

Dew Point: 48 °F

Location of L'vivLocation

Past Weather in L'viv — Graph

°F

L'viv Temperature Yesterday

Maximum temperature yesterday: 73 °F (at 1:00 PM)
Minimum temperature yesterday: 48 °F (at 8:30 AM)
Average temperature yesterday: 61 °F

High & Low Weather Summary for the Past Weeks

 TemperatureHumidityPressure
High79 °F (Sep 16, 3:00 PM)100% (Sep 24, 11:00 PM)30.36 "Hg (Sep 24, 11:00 PM)
Low41 °F (Sep 27, 12:00 AM)36% (Sep 30, 3:30 PM)29.89 "Hg (Sep 17, 1:30 PM)
Average54 °F76%30.09 "Hg
* Reported Sep 16 1:00 AM — Oct 1 1:30 AM, L'viv, Weather by CustomWeather, © 2016

Note: Actual official high and low records may vary slightly from our data, if they occured in-between our weather recording intervals... More about our weather records

Advertising

L'viv Weather History for the Previous 24 Hours

Scroll right to see more
 ConditionsComfort  
Time TempWeatherWind HumidityBarometerVisibility
1:30 AM
Sat, Oct 1
52 °FClear.1 mph88%30.04 "Hg10 mi
1:00 AM52 °FClear.3 mph82%30.04 "Hg10 mi
12:30 AM52 °FPassing clouds.3 mph88%30.07 "HgN/A
12:00 AM54 °FClear.1 mph82%30.07 "Hg10 mi
11:30 PM
Fri, Sep 30
54 °FClear.3 mph88%30.04 "Hg10 mi
11:00 PM54 °FClear.3 mph82%30.04 "Hg10 mi
10:30 PM55 °FClear.3 mph82%30.04 "Hg10 mi
10:00 PM59 °FClear.3 mph72%30.04 "Hg10 mi
9:30 PM59 °FPassing clouds.3 mph72%30.04 "HgN/A
9:00 PM63 °FClear.3 mph64%30.04 "Hg10 mi
8:30 PM63 °FClear.3 mph64%30.04 "HgN/A
8:00 PM59 °FClear.3 mph72%30.04 "Hg2 mi
7:30 PM63 °FClear.1 mph68%30.04 "Hg10 mi
7:00 PM66 °FSunny.1 mph52%30.04 "Hg10 mi
6:30 PM68 °FSunny.8 mph49%30.04 "Hg10 mi
6:00 PM70 °FPassing clouds.8 mph43%30.04 "HgN/A
5:30 PM72 °FSunny.13 mph38%30.04 "Hg10 mi
5:00 PM73 °FPassing clouds.13 mph38%30.04 "HgN/A
4:30 PM73 °FPassing clouds.10 mph38%30.04 "HgN/A
4:00 PM73 °FSunny.15 mph36%30.04 "Hg10 mi
3:30 PM73 °FSunny.15 mph36%30.04 "Hg10 mi
3:00 PM73 °FSunny.17 mph38%30.04 "Hg10 mi
2:30 PM73 °FSunny.17 mph41%30.04 "Hg10 mi
2:00 PM73 °FSunny.15 mph41%30.04 "Hg10 mi
1:30 PM73 °FSunny.17 mph47%30.04 "Hg10 mi
1:00 PM73 °FSunny.13 mph44%30.07 "Hg10 mi
12:30 PM72 °FPassing clouds.13 mph47%30.07 "HgN/A
12:00 PM70 °FSunny.13 mph53%30.07 "Hg10 mi
11:30 AM68 °FPassing clouds.8 mph56%30.07 "HgN/A
11:00 AM66 °FSunny.8 mph60%30.07 "Hg10 mi
10:30 AM64 °FPassing clouds.6 mph60%30.07 "HgN/A
10:00 AM64 °FPassing clouds.6 mph60%30.04 "HgN/A
9:30 AM63 °FPassing clouds.3 mph68%30.04 "HgN/A
9:00 AM55 °FSunny.1 mph88%30.04 "Hg10 mi
8:30 AM48 °FSunny.3 mph94%30.04 "Hg10 mi
8:00 AM50 °FSunny.No wind88%30.04 "Hg10 mi
7:30 AM52 °FSunny.No wind88%30.04 "Hg10 mi
7:00 AM50 °FClear.3 mph94%30.04 "Hg10 mi
6:30 AM50 °FClear.1 mph94%30.04 "Hg10 mi
6:00 AM52 °FClear.No wind88%30.04 "Hg10 mi
5:30 AM54 °FClear.1 mph82%30.04 "Hg10 mi
5:00 AM52 °FClear.1 mph88%30.04 "Hg10 mi
4:30 AM52 °FClear.1 mph88%30.04 "Hg10 mi
4:00 AM54 °FClear.1 mph82%30.04 "Hg10 mi
3:30 AM55 °FClear.3 mph77%30.04 "Hg10 mi
3:00 AM55 °FClear.3 mph82%30.04 "Hg10 mi
2:30 AM55 °FClear.3 mph82%30.07 "Hg10 mi
2:00 AM55 °FClear.3 mph82%30.07 "Hg10 mi
Weather by CustomWeather, © 2016

See weather overviewHow to use our weather pages